Forside
METAR-TAF:

METAR-TAF

Lufthavne :

Taylor County Airport

Medford, Wisconsin, USA

Breddekreds: 45-06-04N, længdekreds: 090-18-12W, højde: 448 m

Aktuelle vejr

Denne rapport blev lavet for 22 minutter siden, kl. 11:55 UTC
Vind stille
Temperatur 13°C
Fugtighed 100%
Tryk 1020 hPa
Sigt: 16.1 km
skyfri

METAR: KMDZ 121155Z AUTO 00000KT 10SM CLR 13/13 A3011 RMK AO2 T01250125 10132 20105

Tid: 07:17 (12:17 UTC)


TAF: fraværende

Vejrobservationer og prognoser fra mere end 4000 lufthavne (METAR og TAF).

De gule og røde prikker repræsenterer de meteorologiske stationer.

Flyt musen over at se navnet på stationen.

Så klik over at se vejr observationer og prognoser.

At skifte det kort: Klik på de grønne knapper med et sort kors for at zoome ind; på den grønne knap med en bindestreg for at zoome ud; eller på de grønne pile for tilstødende kort.


METAR-TAF: